Regional Weather Roundup
Issued by NWS Little Rock, AR

Home | Current Version | Previous Version | Graphics & Text | Print | Product List | Glossary On
Versions: 1 2 3 4 5 6 7 8 9 10 11 12 13 14 15 16 17 18 19 20 21 22 23 24 25 26 27 28 29 30 31 32 33 34 35 36 37 38 39 40 41 42 43 44 45 46 47 48 49 50
000
ASUS44 KLZK 301205
RWRLZK

WEATHER ROUNDUP FOR ARKANSAS
NATIONAL WEATHER SERVICE LITTLE ROCK AR
700 AM CDT TUE SEP 30 2014

NOTE: "FAIR" INDICATES FEW OR NO CLOUDS BELOW 12,000 FEET WITH NO
SIGNIFICANT WEATHER AND/OR OBSTRUCTIONS TO VISIBILITY.

ARZ001-003-010-029-301300-
NORTHWEST ARKANSAS

CITY           SKY/WX    TMP DP  RH WIND       PRES   REMARKS
FAYETTEVILLE   CLEAR     52  52 100 CALM      29.99R FOG
6HR MIN TEMP:  52; 6HR MAX TEMP:  58;

FORT SMITH     CLEAR     62  60  93 E5        29.94S
6HR MIN TEMP:  61; 6HR MAX TEMP:  67;

HARRISON       CLEAR     57  57 100 CALM      29.99S
6HR MIN TEMP:  57; 6HR MAX TEMP:  62;

BENTONVILLE    CLEAR     59  55  88 CALM      29.98R
6HR MIN TEMP:  59; 6HR MAX TEMP:  63;

ROGERS         CLEAR     61  58  90 CALM      29.99R
6HR MIN TEMP:  61; 6HR MAX TEMP:  66;

SILOAM SPGS    CLEAR     59  54  82 E5        29.98S
6HR MIN TEMP:  59; 6HR MAX TEMP:  63;

HIGHFILL       CLEAR     57  56  96 CALM      29.97S
6HR MIN TEMP:  56; 6HR MAX TEMP:  61;

SPRINGDALE     CLEAR     59  57  94 E5        30.00R
$$

ARZ004-005-016-301300-
NORTH CENTRAL ARKANSAS

CITY           SKY/WX    TMP DP  RH WIND       PRES   REMARKS
BATESVILLE     CLEAR     57  54  88 W3        29.97S
6HR MIN TEMP:  57; 6HR MAX TEMP:  63;

FLIPPIN        CLEAR     55  52  88 CALM      29.98S
6HR MIN TEMP:  55; 6HR MAX TEMP:  63;

MTN HOME       CLEAR     59  58  96 CALM      29.97S FOG
6HR MIN TEMP:  59; 6HR MAX TEMP:  67;

$$

ARZ040-041-301300-
WEST CENTRAL ARKANSAS

CITY           SKY/WX    TMP DP  RH WIND       PRES   REMARKS
MENA             N/A     57  55  94 CALM      29.97S
MOUNT IDA      CLEAR     56  55  97 CALM      29.94S FOG
6HR MIN TEMP:  56; 6HR MAX TEMP:  61;

$$

ARZ009-017-025-026-028-301300-
NORTHEAST ARKANSAS

CITY           SKY/WX    TMP DP  RH WIND       PRES   REMARKS
CORNING          N/A     55  55 100 CALM      29.97R FOG
JONESBORO      CLEAR     57  55  93 CALM      29.96R
6HR MIN TEMP:  57; 6HR MAX TEMP:  62;

NEWPORT        CLOUDY    58  56  93 NW3       29.98R
6HR MIN TEMP:  58; 6HR MAX TEMP:  63;

WALNUT RIDGE   CLEAR     55  52  88 CALM      29.96S
6HR MIN TEMP:  55; 6HR MAX TEMP:  63;

BLYTHEVILLE    CLEAR     58  56  93 NE3       29.96R
6HR MIN TEMP:  57; 6HR MAX TEMP:  63;

$$

ARZ022-023-033-042-044-301300-
CENTRAL ARKANSAS

CITY           SKY/WX    TMP DP  RH WIND       PRES   REMARKS
LITTLE ROCK    PTCLDY    64  60  87 CALM      29.96S
6HR MIN TEMP:  63; 6HR MAX TEMP:  68;

N LITTLE ROCK    N/A     63  61  93 CALM      29.96S
6HR MIN TEMP:  63; 6HR MAX TEMP:  71;

JACKSONVILLE   CLEAR     57  55  93 CALM      29.96R
6HR MIN TEMP:  57; 6HR MAX TEMP:  62;

SEARCY         CLEAR     59  57  93 CALM      29.98R
6HR MIN TEMP:  57; 6HR MAX TEMP:  62;

HOT SPRINGS    CLEAR     59  56  89 CALM      29.96S
6HR MIN TEMP:  58; 6HR MAX TEMP:  63;

RUSSELLVILLE   CLEAR     58  57  97 CALM      29.96S FOG
6HR MIN TEMP:  58; 6HR MAX TEMP:  63;

CLINTON        FAIR      55  55 100 CALM      29.99R FOG
$$

ARZ036-301300-
EAST ARKANSAS

CITY           SKY/WX    TMP DP  RH WIND       PRES   REMARKS
WEST MEMPHIS   CLEAR     58  57  97 NW3       29.94R
6HR MIN TEMP:  58; 6HR MAX TEMP:  62;

$$

ARZ050-053-066-070-073-301300-
SOUTHWEST ARKANSAS

CITY           SKY/WX    TMP DP  RH WIND       PRES   REMARKS
ARKADELPHIA    FAIR      61  61 100 CALM      29.95S
6HR MIN TEMP:  59; 6HR MAX TEMP:  63;

CAMDEN         PTCLDY    57  55  94 CALM      29.94S FOG
TEXARKANA      CLOUDY    68  64  87 NE5       29.93R
6HR MIN TEMP:  66; 6HR MAX TEMP:  70;

EL DORADO      CLOUDY    64  62  93 CALM      29.94R
6HR MIN TEMP:  61; 6HR MAX TEMP:  65;

DE QUEEN       CLOUDY    65  63  93 CALM      29.91S
6HR MIN TEMP:  61; 6HR MAX TEMP:  65;

$$

ARZ056-057-069-301300-
SOUTHEAST ARKANSAS

CITY           SKY/WX    TMP DP  RH WIND       PRES   REMARKS
PINE BLUFF     PTCLDY    61  59  93 CALM      29.95S FOG
6HR MIN TEMP:  60; 6HR MAX TEMP:  64;

STUTTGART      CLEAR    N/A N/A N/A N6        29.96S
MONTICELLO     CLEAR     62  59  90 CALM      29.94R
6HR MIN TEMP:  61; 6HR MAX TEMP:  65;


$$





USA.gov is the U.S. government's official web portal to all federal, state and local government web resources and services.